Terminal Aerodrome Forecast
Issued by NWS Charleston, WV

Current Version | Previous Version | Graphics & Text | Print | Product List | Glossary On
Versions: 1 2 3 4 5 6 7 8 9 10 11 12 13 14 15 16 17 18 19 20 21 22 23 24 25 26 27 28
000
FTUS41 KRLX 260200 AAA
TAFBKW
TAF AMD
KBKW 260258Z 2603/2624 03005KT P6SM OVC100
     FM260400 00000KT 3SM -SN BR OVC025
     FM260600 00000KT 1SM -SN BR SCT001 OVC010
     FM261100 VRB03KT 5SM BR OVC003
     FM261400 00000KT P6SM OVC010
     FM262000 31005KT 6SM -SN BR OVC008=

USA.gov is the U.S. government's official web portal to all federal, state and local government web resources and services.